Regional Weather Roundup
Issued by NWS

Home | Current Version | Previous Version | Graphics & Text | Print | Product List | Glossary On
Versions: 1 2 3 4 5 6 7 8 9 10 11 12 13 14 15 16 17 18 19 20 21 22 23 24 25 26 27 28 29 30 31 32 33 34 35 36 37 38 39 40 41 42 43 44 45 46 47 48 49 50
375
ASUS43 KLSX 041857
RWRMO

WEATHER SUMMARY FOR MISSOURI
NATIONAL WEATHER SERVICE SPRINGFIELD MO
200 PM CDT WED MAY 04 2016

NOTE: "FAIR" INDICATES FEW OR NO CLOUDS BELOW 12,000 FEET WITH NO
       SIGNIFICANT WEATHER AND/OR OBSTRUCTIONS TO VISIBILITY.
       CURRENT SKY AND/OR WEATHER CONDITIONS ARE NOT AVAILABLE FOR
       CHILLICOTHE AND FARMINGTON.

MOZ001>031-035>038-043-044-053-054-042000-
...NORTHERN AND WESTERN MISSOURI...

CITY           SKY/WX    TMP DP  RH WIND       PRES   REMARKS
KANSAS CTY INT MOSUNNY   68  40  35 NW16G24   29.99F
LEE`S SUMMIT   SUNNY     68  38  33 N18G26    29.98F
ST JOSEPH      SUNNY     69  37  30 NW20G25   30.00F
CHILLICOTHE      N/A     68  41  37 N14G21    29.96F

$$
MOZ066>068-077>081-088>096-101>105-042000-
...SOUTHWEST MISSOURI...

CITY           SKY/WX    TMP DP  RH WIND       PRES   REMARKS
SPRINGFIELD    SUNNY     70  36  28 N20       29.92S
JOPLIN         SUNNY     71  40  32 N18G25    29.97S
BRANSON        SUNNY     72  37  28 N18G35    29.91F

$$
MOZ032>034-039>042-045>050-055>058-069>072-042000-
...CENTRAL MISSOURI...

CITY           SKY/WX    TMP DP  RH WIND       PRES   REMARKS
COLUMBIA       NOT AVBL
JEFFERSON CITY MOSUNNY   69  36  29 N17G25    29.89S
ROLLA          MOSUNNY   66  39  37 N21G28    29.86S
SEDALIA        SUNNY     70  40  33 N17G26    29.95S
WARRENSBURG    MOSUNNY   68  37  32 NW14G21   29.95F

$$
MOZ051-052-059>065-042000-
...EAST CENTRAL MISSOURI...

CITY           SKY/WX    TMP DP  RH WIND       PRES   REMARKS
ST LOUIS INTL  PTSUNNY   67  40  37 NW17G23   29.83S

$$
MOZ072>076-082>087-097>100-106>115-042000-
...SOUTH CENTRAL AND SOUTHEAST MISSOURI...

CITY           SKY/WX    TMP DP  RH WIND       PRES   REMARKS
CAPE GIRARDEAU MOSUNNY   70  43  37 N20G29    29.78R
POPLAR BLUFF   MOSUNNY   74  44  34 N17       29.77S
WEST PLAINS    SUNNY     72  41  32 N16G30    29.86S

$$



USA.gov is the U.S. government's official web portal to all federal, state and local government web resources and services.